1st Responders/1st Detectors/Storm Spotters Weather Summary for Harrison County, KY

Forecast Maps


Reg. NEXRAD Animation


National Fire Danger: Day 1 & 2 Map

Current NWS Watch/Warnings

SPC Convective Day 1 Outlook


Day 2 Outlook

(Click images to enlarge|Page will refresh every 5 minutes)
UK Ag. Weather Center Desktop Severe Weather Service[HERE]
Harrison County, KY Hazardous Weather Outlook Webcast
(9 AM to 9 PM Mon-Fri)
[Fast]
[Dial-up]


UKAWC 1st Detectors/1st Responders Precision Weather Forecast For HARRISON County, Kentucky
(based on the NWS County Digital Forecast)

ISSUED AT 16:00 UTC ON THURSDAY SEP 20 2018
DAY THURSDAY
EDT 3HR 1P 2P 3P 4P 5P 6P 7P
MAX/MIN -- -- -- -- -- -- 90°
TEMP 90° 90° 90° 90° 88° 86° 83°
SKY COVER 26% 31% 32% 33% 34% 26% 19%
Clouds
DEW PT 72° 70° 70° 70° 70° 70° 70°
RH 55% 51% 52% 52% 55% 58% 64%
POP 12HR -- -- -- -- -- -- --
RAIN/SNOW (liq.equ) -- 0.00in -- -- -- -- --
SNOWFALL -- 0in -- -- -- -- --
WIND SPEED(MPH) 6 6 6 7 7 7 6
WIND Gust(MPH) 7 7 8 8 8 8 8
WIND DIR S S S S S S S
DEW -- -- -- -- -- -- --
HeatIndex 97 97 97 97 95 92 88
Rain Showers -- -- -- -- -- -- --
Thunder Storm -- -- -- -- -- -- --
WIND CHILL -- -- -- -- -- -- --
SPRAY COND
DRY COND
LIVESTOCK HEATSTRESS 82.28 81.59 81.76 81.76 80.77 79.72 78.21



DAY FRIDAY SATURDAY SUNDAY MONDAY TUESDAY WEDNESDAY
EDT 6HR 8P 9P 10P 11P MIDN 1A 2A 3A 4A 5A 6A 7A 8A 9A 10A 11A NOON 1P 2P 3P 4P 5P 6P 7P 8P 9P 10P 11P MIDN 2A 5A 8A 11A 2P 5P 8P 2A 8A 2P 8P 2A 8A 2P 8P 2A 8A 2P 8P 2A 8A 2P 8P
MAX/MIN -- -- -- -- -- -- -- -- -- -- -- -- 70° -- -- -- -- -- -- -- -- -- -- 85° -- -- -- -- -- -- -- 61° -- -- 68° -- -- 58° 70° -- -- 58° 76° -- -- 65° 76° -- -- 65° 72° --
TEMP 79° 77° 76° 74° 74° 72° 72° 72° 72° 70° 70° 70° 70° 74° 79° 83° 85° 85° 85° 85° 83° 83° 81° 79° 76° 74° 74° 72° 72° 70° 65° 61° 65° 67° 68° 63° 61° 58° 68° 65° 59° 61° 76° 70° 67° 65° 76° 70° 67° 65° 72° 67°
SKY COVER 11% 12% 13% 14% 15% 16% 17% 19% 21% 24% 23% 23% 23% 25% 30% 32% 36% 45% 50% 52% 56% 58% 58% 57% 56% 62% 72% 78% 77% 77% 87% 86% 92% 88% 91% 82% 79% 70% 57% 56% 69% 73% 71% 65% 70% 78% 79% 77% 83% 81% 81% 68%
Clouds
DEW PT 70° 70° 70° 70° 70° 68° 68° 68° 68° 68° 67° 67° 67° 67° 68° 70° 70° 70° 70° 70° 70° 70° 70° 70° 70° 70° 70° 70° 68° 67° 61° 58° 58° 58° 58° 58° 58° 56° 58° 58° 56° 58° 65° 63° 65° 63° 67° 67° 65° 65° 65° 61°
RH 73% 79% 81% 84% 87% 86% 90% 90% 90% 93% 93% 93% 87% 81% 71% 65% 61% 59% 58% 60% 64% 67% 71% 73% 79% 84% 87% 90% 87% 89% 90% 90% 81% 75% 70% 83% 86% 96% 70% 77% 89% 93% 70% 78% 89% 93% 73% 87% 93% 100% 75% 81%
POP 12HR 2% -- -- -- -- -- -- -- -- -- -- -- 4% -- -- -- -- -- -- -- -- -- -- -- 48% -- -- -- -- -- -- 57% -- -- -- 37% -- 35% -- 25% -- 38% -- 46% -- 39% -- 50% -- 60% -- 39%
RAIN/SNOW (liq.equ) 0.00in -- -- -- -- -- 0.00in -- -- -- -- -- 0.00in -- -- -- -- -- 0.00in -- -- -- -- -- 0.12in -- -- -- -- 0.11in -- 0.01in -- 0.01in -- 0.06in -- -- -- -- -- -- -- -- -- -- -- -- -- -- -- --
SNOWFALL 0in -- -- -- -- -- 0in -- -- -- -- -- 0in -- -- -- -- -- 0in -- -- -- -- -- 0in -- -- -- -- 0in -- 0in -- 0in -- 0in -- -- -- -- -- -- -- -- -- -- -- -- -- -- -- --
WIND SPEED(MPH) 6 6 5 5 5 5 6 7 7 7 7 8 8 9 10 13 13 13 13 13 10 9 8 7 7 6 5 2 2 5 7 7 7 7 7 5 5 6 7 6 5 6 7 7 7 7 8 8 7 6 8 6
WIND DIR S S S S S S S S S S S S S SW SW SW SW SW SW SW SW SW SW SW SW SW W W W N N NE NE NE NE NE NE NE NE NE E E SE SE S S S S SW SW W W
HeatIndex 83 77 76 74 74 72 72 72 72 70 70 70 70 74 79 87 89 90 90 89 88 87 85 79 76 74 74 72 72 70 65 61 65 67 68 63 61 58 68 65 59 61 76 70 67 65 76 70 67 65 72 67
Rain Showers -- -- -- -- -- -- -- -- -- -- -- -- Slight Chance Slight Chance Slight Chance Slight Chance Slight Chance Slight Chance Chance Chance Chance Chance Chance Chance Likely Likely Likely Likely Likely Chance Chance Chance Chance Chance Chance Chance Chance Chance Slight Chance Slight Chance Chance Chance Chance Chance Chance Chance Chance Likely Likely Chance Chance Slight Chance
Thunder Storm -- -- -- -- -- -- -- -- -- -- -- -- Slight Chance Slight Chance Slight Chance Slight Chance Slight Chance Slight Chance Chance Chance Chance Chance Chance Chance Likely Likely Likely Likely Likely Chance Chance Chance Chance Chance Chance Chance Chance Chance Slight Chance Slight Chance Chance Chance Chance Chance Chance Chance Chance Likely Likely Chance Chance Slight Chance
WIND CHILL -- -- -- -- -- -- -- -- -- -- -- -- -- -- -- -- -- -- -- -- -- -- -- -- -- -- -- -- -- -- -- -- -- -- -- -- -- -- -- -- -- -- -- -- -- -- -- -- -- -- -- --
SPRAY COND
DRY COND
LIVESTOCK HEATSTRESS 76.00 74.90 74.20 72.66 72.91 70.98 71.27 71.27 71.27 69.57 69.57 69.57 69.20 72.41 75.78 78.34 79.38 79.09 78.95 79.24 78.21 78.61 77.46 76.00 74.01 72.66 72.91 71.27 71.06 69.32 64.66 60.88 64.35 65.87 66.48 62.61 60.83 58.02 66.48 64.22 58.99 60.92 73.16 68.64 66.50 64.76 73.45 69.20 66.68 65.00 70.19 66.14

Click on individual weather variable above in left-hand column (ie., TEMP, RH, QPF 12HR) to view state forecast maps






NWS 48 Hr. Forecast Maps,

Regional Hourly Observations For HARRISON County, Kentucky
Issued at 100 PM EDT THU SEP 20 2018
NORTHEAST KENTUCKY
  
CITY           SKY/WX    TMP DP  RH WIND       PRES   REMARKS
LEXINGTON      NOT AVBL                                               
COVINGTON      NOT AVBL                                               
FRANKFORT      NOT AVBL                                               


Current NOWCAST not available:
Nowcasts are not issued routinely during fair weather. Only when
precipitation or other significant weather is occuring in this county will these
forecasts be issued. Currently, there is no short term forecast in effect.


Fire Weather Forecast For HARRISON County, KY
Provided by the National Weather Service:

Issued at: Thu Sep 20 13:05:01 EDT 2018


                      Today        Tonight      Fri          

CLOUD COVER           MClear       MClear       PCldy        
PRECIP TYPE           NONE         NONE         tstms        
CHANCE PRECIP (%)     0            0            50           
TEMP (24H TREND)      91 (0)       70 (+1)      87           
RH % (24H TREND)      47 (-3)      91 (-5)      55           
20FTWND-VAL/AM(MPH)   Lgt/Var                   SW  9 G20    
20FTWND-RDG/PM(MPH)   Lgt/Var      Lgt/Var      SW  9 G18    
PRECIP AMOUNT         0.00         0.00         0.06         
MIXING HGT(FT-AGL/MSL)5769                      5628         
TRANSPORT WND (MPH)   SW  9                     SW 22        
VENT RATE (KT-FT)     51921                     101304       
DISPERSION            Good                      Excellent    
DSI                   SLGT UNSTBL  SLGT UNSTBL  SLGT UNSTBL  
LAL                   1            1            3            
HAINES INDEX          3            3            3            
ADI EARLY             23 FAIR      2 VERY POOR  44 GEN GOOD  
ADI LATE              39 FAIR      5 VERY POOR  65 GOOD      
MAX LVORI EARLY       7            5            5            
MAX LVORI LATE        2            6            3            

REMARKS...ADI IS ATMOSPHERIC DISPERSION INDEX BY LAVDAS.        
LVORI IS LOW VISIBILITY OCCURRENCE RISK INDEX.

.SATURDAY...Mostly cloudy with a 50 percent chance of showers and
thunderstorms. Lows in the lower 60s. Highs in the lower 70s.
Southwest winds around 5 mph. 
.SUNDAY...Mostly cloudy with a 50 percent chance of showers and
thunderstorms. Lows in the upper 50s. Highs around 70. Northeast
winds around 5 mph. 
.MONDAY...Mostly cloudy with a 50 percent chance of showers and
thunderstorms. Lows around 60. Highs in the upper 70s. Southeast
winds around 5 mph. 
.TUESDAY...Mostly cloudy with a 50 percent chance of showers and
thunderstorms. Lows in the mid 60s. Highs in the upper 70s. South
winds 5 to 10 mph. 
.WEDNESDAY...Showers likely and chance of thunderstorms. Lows in
the mid 60s. Highs in the mid 70s. West winds 5 to 10 mph. 

SPC's Fire Weather Web Tool (Excellent!), SPC's Fire Weather Outlooks, NWS Fire Weather WEB, Fire Danger Class Map,
Keetch-Byram Drought Index, ROMAN Web, Haines Index ,
WFAS's 10-hr Dead Fuel Moist., WFAS's 100-hr Dead Fuel Moist., Probablity of Ignition, Visual blackness Map, Palmer Drought Index, HPC's Rainfall Forecast Maps


Hazardous Weather Outlook For HARRISON County, Kentucky
310 AM EDT Thu Sep 20 2018 /210 AM CDT Thu Sep 20 2018/

 DAY ONE  Today and Tonight.

No hazardous weather is expected at this time.

 DAYS TWO THROUGH SEVEN  Friday through Wednesday.

Waves of thunderstorms will be possible each day through the period. 

A few strong to severe storms will be possible Friday afternoon and
evening, with locally gusty winds, heavy rainfall, and lightning  
being the main threats. 

Additional rounds of thunderstorms through Wednesday will produce 2
to 4 inches of total rainfall, with locally higher amounts possible.
Localized flooding is likely where heavier and/or repeated rainfall
occurs.

 SPOTTER INFORMATION STATEMENT  

Spotter activation may be required Friday afternoon and evening.

Latest HARRISON County, Kentucky Watches, Warnings and Advisories.
Additional Drought Info.: UKAWC Drought Page, Kentucky Drought Watch


7-Day Forecast For HARRISON County, KY

TODAY
Mostly sunny in the morning then becoming partly cloudy. Highs in the lower 90s. South winds up to 10 mph.

TONIGHT
Mostly clear. Lows around 70. South winds 5 to 10 mph.

FRIDAY
Partly cloudy with a 50 percent chance of showers and thunderstorms. Highs in the mid 80s. Southwest winds 10 to 15 mph.

FRIDAY NIGHT
Showers and thunderstorms likely. Lows in the lower 60s. West winds 5 to 10 mph. Chance of precipitation 60 percent.

SATURDAY
Cloudy with a 40 percent chance of showers and thunderstorms. Highs in the upper 60s. Northeast winds 5 to 10 mph.

SATURDAY NIGHT
Mostly cloudy with a 40 percent chance of showers and thunderstorms. Lows in the upper 50s.

SUNDAY
Partly cloudy with a 40 percent chance of showers and thunderstorms. Highs in the upper 60s.

SUNDAY NIGHT
Partly cloudy with a 40 percent chance of showers and thunderstorms. Lows in the upper 50s.

MONDAY
Mostly cloudy with a 50 percent chance of showers and thunderstorms. Highs in the mid 70s.

MONDAY NIGHT
Partly cloudy with a 40 percent chance of showers and thunderstorms. Lows in the mid 60s.

TUESDAY
Mostly cloudy with a 50 percent chance of showers and thunderstorms. Highs in the upper 70s.

TUESDAY NIGHT
Showers and thunderstorms likely. Lows in the mid 60s. Chance of precipitation 60 percent.

WEDNESDAY
Mostly cloudy with a 40 percent chance of showers and thunderstorms. Highs in the lower 70s.

Ag Weather Center, Department of Biosystems & Agricultural Engineering, University of Kentucky